Weather History for Cushing, OK

Change the Weather History Date:

Friday, March 14, 2014

  Actual Average Record
Temperature  
Mean Temperature 60 °F -  
Max Temperature 75 °F 61 °F 86 °F (1967)
Min Temperature 42 °F 35 °F 13 °F (1954)
Degree Days  
Heating Degree Days 6    
Growing Degree Days 10 (Base 50)    
Moisture  
Dew Point 36 °F    
Average Humidity 47    
Maximum Humidity 66    
Minimum Humidity 29    
Precipitation  
Precipitation 0.00 in - - ()
Sea Level Pressure  
Sea Level Pressure 29.95 in    
Wind  
Wind Speed 7 mph (SSW)    
Max Wind Speed 16 mph    
Max Gust Speed 24 mph    
Visibility 10 miles    
Events      
Averages and records for this station are not official NWS values.
T = Trace of Precipitation, MM = Missing Value Source: NWS Daily Summary

Daily Weather History Graph

Daily Weather History Graph

Search for Another Location

Airport:

Trip Planner

Search our weather history database for the weather conditions in past years. The results will help you decide how hot, cold, wet, or windy it might be!

Date:

Astronomy

Mar. 14, 2014 Rise Set
Actual Time 7:39 AM CDT 7:33 PM CDT
Civil Twilight 7:13 AM CDT 7:59 PM CDT
Nautical Twilight 6:44 AM CDT 8:29 PM CDT
Astronomical Twilight 6:14 AM CDT 8:59 PM CDT
Moon 5:59 PM CDT (3/14) 6:17 AM CDT (3/14)
Length of Visible Light 12h 45m
Length of Day
11h 54m
Waxing Gibbous, 96% of the Moon is Illuminated
Mar 14
Waxing Gibbous
Mar 16
Full
Mar 23
Last Quarter
Mar 30
New
Apr 7
First Quarter

Hourly Weather History & Observations

Time (CDT) Temp. Windchill Dew Point Humidity Pressure Visibility Wind Dir Wind Speed Gust Speed Precip Events Conditions
12:15 AM 44.6 °F 41.4 °F 32.0 °F 61% 29.96 in 10.0 mi SSW 5.8 mph - N/A   Clear
12:35 AM 44.6 °F 41.4 °F 32.0 °F 61% 29.95 in 10.0 mi SSW 5.8 mph - N/A   Clear
12:55 AM 44.6 °F 40.2 °F 32.0 °F 61% 29.94 in 10.0 mi South 8.1 mph - N/A   Clear
1:15 AM 46.4 °F 41.9 °F 32.0 °F 57% 29.95 in 10.0 mi South 9.2 mph - N/A   Clear
1:35 AM 48.2 °F - 32.0 °F 54% 29.94 in 10.0 mi South 9.2 mph - N/A   Clear
1:55 AM 46.4 °F 42.9 °F 32.0 °F 57% 29.94 in 10.0 mi South 6.9 mph - N/A   Clear
2:15 AM 46.4 °F 43.5 °F 32.0 °F 57% 29.94 in 10.0 mi South 5.8 mph - N/A   Clear
2:35 AM 46.4 °F 42.9 °F 32.0 °F 57% 29.94 in 10.0 mi South 6.9 mph - N/A   Clear
2:55 AM 46.4 °F 42.9 °F 32.0 °F 57% 29.93 in 10.0 mi South 6.9 mph - N/A   Clear
3:15 AM 44.6 °F 40.7 °F 32.0 °F 61% 29.93 in 10.0 mi South 6.9 mph - N/A   Clear
3:35 AM 44.6 °F 41.4 °F 32.0 °F 61% 29.93 in 10.0 mi South 5.8 mph - N/A   Clear
3:55 AM 46.4 °F 43.5 °F 32.0 °F 57% 29.93 in 10.0 mi South 5.8 mph - N/A   Clear
4:15 AM 46.4 °F 42.9 °F 33.8 °F 62% 29.92 in 10.0 mi South 6.9 mph - N/A   Clear
4:35 AM 50.0 °F - 33.8 °F 54% 29.92 in 10.0 mi South 9.2 mph - N/A   Clear
4:55 AM 50.0 °F - 33.8 °F 54% 29.91 in 10.0 mi SSW 9.2 mph - N/A   Clear
5:15 AM 51.8 °F - 33.8 °F 50% 29.91 in 10.0 mi SSW 9.2 mph - N/A   Clear
5:35 AM 51.8 °F - 33.8 °F 50% 29.90 in 10.0 mi SSW 11.5 mph - N/A   Clear
5:55 AM 50.0 °F - 33.8 °F 54% 29.91 in 10.0 mi SSW 10.4 mph - N/A   Clear
6:15 AM 50.0 °F - 33.8 °F 54% 29.91 in 10.0 mi SSW 12.7 mph - N/A   Clear
6:35 AM 50.0 °F - 33.8 °F 54% 29.90 in 10.0 mi SSW 12.7 mph - N/A   Clear
6:55 AM 51.8 °F - 33.8 °F 50% 29.90 in 10.0 mi SSW 12.7 mph - N/A   Clear
7:15 AM 50.0 °F - 33.8 °F 54% 29.90 in 10.0 mi SSW 11.5 mph - N/A   Clear
7:35 AM 50.0 °F - 33.8 °F 54% 29.90 in 10.0 mi South 9.2 mph - N/A   Clear
7:55 AM 50.0 °F - 33.8 °F 54% 29.92 in 10.0 mi South 6.9 mph - N/A   Scattered Clouds
8:15 AM 50.0 °F - 33.8 °F 54% 29.91 in 10.0 mi South 9.2 mph - N/A   Clear
8:35 AM 50.0 °F - 33.8 °F 54% 29.92 in 10.0 mi South 11.5 mph - N/A   Clear
8:55 AM 51.8 °F - 33.8 °F 50% 29.93 in 10.0 mi SSW 12.7 mph - N/A   Clear
9:15 AM 53.6 °F - 33.8 °F 47% 29.93 in 10.0 mi South 16.1 mph - N/A   Clear
9:35 AM 53.6 °F - 35.6 °F 51% 29.94 in 10.0 mi SSW 10.4 mph 17.3 mph N/A   Clear
9:55 AM 55.4 °F - 35.6 °F 47% 29.95 in 10.0 mi SSW 15.0 mph 24.2 mph N/A   Clear
10:15 AM 57.2 °F - 35.6 °F 44% 29.95 in 10.0 mi SSW 16.1 mph 20.7 mph N/A   Clear
10:35 AM 59.0 °F - 35.6 °F 42% 29.96 in 10.0 mi SSW 12.7 mph 19.6 mph N/A   Clear
10:55 AM 59.0 °F - 35.6 °F 42% 29.97 in 10.0 mi SW 12.7 mph 17.3 mph N/A   Clear
11:15 AM 60.8 °F - 37.4 °F 42% 29.97 in 10.0 mi SSW 9.2 mph - N/A   Clear
11:35 AM 62.6 °F - 37.4 °F 39% 29.97 in 10.0 mi SW 9.2 mph - N/A   Clear
11:55 AM 64.4 °F - 37.4 °F 37% 29.98 in 10.0 mi West 8.1 mph - N/A   Clear
12:15 PM 64.4 °F - 37.4 °F 37% 29.98 in 10.0 mi West 6.9 mph - N/A   Clear
12:35 PM 64.4 °F - 37.4 °F 37% 29.98 in 10.0 mi WSW 6.9 mph - N/A   Clear
12:55 PM 68.0 °F - 37.4 °F 33% 29.97 in 10.0 mi West 4.6 mph - N/A   Clear
1:15 PM 69.8 °F - 39.2 °F 33% 29.98 in 10.0 mi West 4.6 mph - N/A   Clear
1:35 PM 69.8 °F - 39.2 °F 33% 29.97 in 10.0 mi SW 3.5 mph - N/A   Clear
1:55 PM 69.8 °F - 39.2 °F 33% 29.97 in 10.0 mi Calm Calm - N/A   Clear
2:15 PM 71.6 °F - 41.0 °F 33% 29.97 in 10.0 mi NNE 4.6 mph - N/A   Clear
2:35 PM 71.6 °F - 41.0 °F 33% 29.96 in 10.0 mi Calm Calm - N/A   Clear
2:55 PM 73.4 °F - 41.0 °F 31% 29.96 in 10.0 mi WNW 3.5 mph - N/A   Clear
3:15 PM 75.2 °F - 41.0 °F 29% 29.95 in 10.0 mi NNW 4.6 mph - N/A   Clear
3:35 PM 75.2 °F - 41.0 °F 29% 29.95 in 10.0 mi NNE 4.6 mph - N/A   Clear
3:55 PM 73.4 °F - 41.0 °F 31% 29.95 in 10.0 mi Calm Calm - N/A   Clear
4:15 PM 73.4 °F - 41.0 °F 31% 29.95 in 10.0 mi NNE 6.9 mph - N/A   Clear
4:35 PM 73.4 °F - 41.0 °F 31% 29.95 in 10.0 mi Calm Calm - N/A   Clear
4:55 PM 73.4 °F - 41.0 °F 31% 29.94 in 10.0 mi NNE 4.6 mph - N/A   Clear
5:15 PM 73.4 °F - 41.0 °F 31% 29.94 in 10.0 mi South 3.5 mph - N/A   Clear
5:35 PM 71.6 °F - 41.0 °F 33% 29.94 in 10.0 mi Calm Calm - N/A   Clear
5:55 PM 71.6 °F - 39.2 °F 31% 29.94 in 10.0 mi NE 4.6 mph - N/A   Clear
6:15 PM 69.8 °F - 37.4 °F 31% 29.94 in 10.0 mi NNE 5.8 mph - N/A   Clear
6:35 PM 68.0 °F - 37.4 °F 33% 29.94 in 10.0 mi North 3.5 mph - N/A   Clear
6:55 PM 66.2 °F - 37.4 °F 35% 29.95 in 10.0 mi NNE 4.6 mph - N/A   Clear
7:15 PM 64.4 °F - 37.4 °F 37% 29.95 in 10.0 mi Calm Calm - N/A   Clear
7:35 PM 62.6 °F - 35.6 °F 37% 29.96 in 10.0 mi Calm Calm - N/A   Clear
7:55 PM 60.8 °F - 35.6 °F 39% 29.96 in 10.0 mi NNE 3.5 mph - N/A   Clear
8:15 PM 59.0 °F - 35.6 °F 42% 29.97 in 10.0 mi Calm Calm - N/A   Clear
8:35 PM 57.2 °F - 35.6 °F 44% 29.97 in 10.0 mi Calm Calm - N/A   Clear
8:55 PM 53.6 °F - 35.6 °F 51% 29.98 in 10.0 mi Calm Calm - N/A   Clear
9:15 PM 50.0 °F - 32.0 °F 50% 29.98 in 10.0 mi Calm Calm - N/A   Clear
9:35 PM 50.0 °F - 35.6 °F 58% 29.98 in 10.0 mi Calm Calm - N/A   Clear
9:55 PM 48.2 °F - 35.6 °F 62% 29.98 in 10.0 mi Calm Calm - N/A   Clear
10:15 PM 48.2 °F - 33.8 °F 58% 29.99 in 10.0 mi Calm Calm - N/A   Clear
10:35 PM 46.4 °F - 33.8 °F 62% 29.99 in 10.0 mi Calm Calm - N/A   Clear
10:55 PM 50.0 °F - 33.8 °F 54% 29.99 in 10.0 mi Calm Calm - N/A   Clear
11:15 PM 46.4 °F - 32.0 °F 57% 29.99 in 10.0 mi Calm Calm - N/A   Clear
11:35 PM 44.6 °F - 32.0 °F 61% 29.99 in 10.0 mi Calm Calm - N/A   Clear
11:55 PM 42.8 °F - 32.0 °F 66% 29.99 in 10.0 mi Calm Calm - N/A   Clear